Location: Cochayoc Jasa
(13.5583°S, 72.0461°W)
Time: 01:14:41
(UTC+00:00)

Daily predictions for brighter satellites

Satellite Brightness Start Highest point End
(mag) Time Altitude Azimuth Time Altitude Azimuth Time Altitude Azimuth
Cosmos 1048 Rocket 3.8 00:00:33 10° N 00:05:43 81° ENE 00:06:57 53° SSE
BREEZE-M DEB (TANK) 4.1 00:02:10 10° SW 00:10:19 50° WNW 00:11:58 27° N
CZ-2D R/B 3.9 00:14:27 51° WSW 00:14:37 52° WSW 00:18:21 10° NNW
Okean-O 4.4 00:12:44 10° SSW 00:16:37 30° WSW 00:20:27 10° NW
FALCON 9 R/B 3.9 00:11:04 10° WSW 00:17:13 23° NW 00:20:07 11° N
CSL-04 Rocket 3.5 00:20:41 80° SE 00:20:57 86° ENE 00:26:22 10° NNW
CZ-4 R/B 3.1 00:23:52 26° SW 00:25:06 31° WSW 00:28:45 10° NW
Lacrosse 5 rocket 4.2 00:29:32 10° WSW 00:30:43 11° SW 00:31:54 10° SW
CZ-3A R/B 3.8 00:13:43 10° W 00:41:47 50° SSW 00:43:38 45° S
SL-16 R/B 4.2 00:48:08 10° WNW 00:52:32 23° WSW 00:54:45 18° SW
Milstar 3 Cent rocket 4.5 00:53:23 10° W 00:58:39 28° NNW 01:07:25 10° NE
USA 267 3.9 01:08:13 50° NW 01:08:13 50° NW 01:12:51 10° NW
Cosmos 2333 Rocket 4.3 08:17:15 20° ESE 08:17:37 20° ESE 08:21:36 10° ENE
ALOS 4.4 08:31:01 10° NE 08:34:38 23° ESE 08:34:38 23° ESE
Hubble Space Telescope 3.4 08:44:59 18° E 08:44:59 18° E 08:46:10 10° ESE
Cosmos 2360 Rocket 3.9 08:47:54 22° N 08:47:54 22° N 08:49:50 10° N
Intelsat 5-3 Rocket 3.4 08:56:12 63° ESE 08:56:12 63° ESE 08:59:17 10° ESE
Lacrosse 5 rocket 3.5 09:03:03 21° SE 09:03:53 22° SE 09:07:15 10° ENE
ARIANE 5 R/B 3.9 09:08:35 18° NNE 09:08:35 18° NNE 09:11:07 10° ENE
Chandra Rocket (1) 3.7 08:50:15 10° WNW 09:08:13 71° NNE 09:13:04 10° ESE
Cosmos 2219 Rocket 2.5 09:08:08 41° S 09:09:59 64° ESE 09:15:32 10° NNE
Cosmos 2285 Rocket 4.2 09:07:02 10° NNW 09:14:43 49° SSW 09:19:28 10° S
Meteor 2-2 Rocket 4.2 09:08:00 10° N 09:13:58 79° W 09:19:54 10° S
FENGYUN 3A 3.7 09:08:43 10° NNE 09:14:08 79° ESE 09:16:22 37° S
Cosmos 1408 Rocket 3.7 09:19:13 65° NNW 09:19:13 65° NNW 09:22:58 10° N
Cosmos 2344 4.0 09:21:34 33° SW 09:26:15 58° WNW 09:34:08 10° N
Meteor PRIRODA 3.8 09:23:56 10° N 09:27:04 64° N 09:27:04 64° N
COSMOS 2428 2.6 09:25:58 32° SSW 09:28:46 90° WNW 09:34:28 10° NNE
METEOR-M 4.0 09:23:28 10° N 09:28:47 80° WNW 09:31:40 28° SSW
Aurora 2 Rocket 2.2 09:31:07 59° NNE 09:31:07 59° NNE 09:34:13 10° ENE
IUS-13 SRM-1 4.2 09:27:46 29° SW 09:32:42 48° S 09:36:31 10° E
Cosmos 1689 Rocket 3.5 09:34:46 10° SSE 09:37:33 37° E 09:40:16 10° N
Cosmos 1821 Rocket 3.9 09:33:27 10° S 09:39:49 79° W 09:46:12 10° N
STARLINK-1057 4.4 09:38:46 27° S 09:40:39 46° SE 09:44:39 10° NE
GPS 2-15 Rocket1 3.8 09:40:32 36° SSW 09:41:51 44° S 09:46:34 10° ESE
Cosmos 2082 3.9 09:36:41 10° NW 09:42:00 44° WSW 09:47:21 10° S
Atlas Centaur 2 3.4 09:40:54 17° S 09:42:08 19° SSE 09:45:07 10° ESE
NOSS 0 Rocket 4.3 09:39:03 10° S 09:45:12 63° ESE 09:51:17 10° NNE
Cosmos 1818 3.5 09:41:46 22° SSW 09:45:20 90° E 09:50:44 10° NNE
STARLINK-1034 4.2 09:43:31 26° SSW 09:45:35 54° SE 09:49:38 10° NE
Meteor 2-3 Rocket 3.9 09:42:47 25° SSW 09:45:53 48° W 09:51:18 10° NNW
Cosmos 1346 Rocket 3.5 09:42:35 10° S 09:46:33 54° E 09:50:29 10° NNE
Cosmos 372 Rocket 4.0 09:42:25 10° NNW 09:47:30 57° WSW 09:52:38 10° S
SJ-12 4.1 09:43:42 10° N 09:47:41 49° W 09:49:02 35° SW
Abrixas rocket 2.0 09:48:19 59° S 09:48:19 59° S 09:50:53 10° SE
Delta 198 4.0 09:44:50 23° WNW 09:48:00 76° NNE 09:53:53 10° ESE
Cosmos 2237 Rocket 3.4 09:43:16 10° S 09:48:34 41° ESE 09:53:51 10° NE
Delta 168 4.4 09:48:08 24° SSW 09:50:13 35° SSE 09:55:59 10° E
STARLINK-1068 3.9 09:48:18 25° SSW 09:50:33 63° SE 09:54:39 10° NE
Cosmos 2263 Rocket 4.0 09:48:34 10° NNE 09:53:30 33° ENE 09:58:27 10° SE
H-2A R/B 3.2 09:49:57 10° NNW 09:54:04 38° W 09:55:47 27° SW
ATLAS 5 CENTAUR R/B 1.5 09:51:00 18° SSW 09:54:11 78° ESE 09:58:13 10° NNE
STARLINK-1027 3.7 09:53:06 24° SSW 09:55:31 73° SE 09:59:38 10° NE
Cosmos 1743 Rocket 3.7 09:55:33 13° SSW 09:59:21 52° W 10:03:41 10° N
Cosmos 1934 Rocket 4.0 09:53:31 10° S 09:59:51 87° E 10:06:01 10° N
STARLINK-1060 3.6 09:57:54 22° SSW 10:00:31 85° SE 10:04:38 10° NE
Ariane H10+ 3.8 09:57:47 10° NNW 10:00:35 19° NNE 10:05:46 10° ENE
GPS 2-18 Rocket1 2.9 09:59:26 30° W 10:01:02 64° SSW 10:04:41 10° ESE
Cosmos 2333 Rocket 3.0 09:59:19 23° WSW 10:01:41 31° WNW 10:06:35 10° NNW
SL-24 R/B 4.2 09:59:50 10° S 10:04:00 53° WSW 10:08:30 10° NNW
STARLINK-1030 3.5 10:02:41 20° SW 10:05:29 83° NW 10:09:36 10° NNE
NOSS 3-3 (A) 3.6 10:00:58 12° SSW 10:06:14 72° WNW 10:11:46 10° NNE
NOSS 3-3 (C) 3.6 10:00:59 12° SSW 10:06:19 73° WNW 10:11:52 10° NNE
Cosmos 1727 Rocket 4.1 10:00:10 10° N 10:06:20 83° E 10:12:34 10° S
SL-8 R/B 3.9 10:03:02 10° WNW 10:07:40 47° SW 10:12:19 10° SSE
Cosmos 1680 Rocket 3.5 10:04:17 10° SSW 10:09:24 58° WNW 10:14:30 10° N
STARLINK-1020 3.6 10:07:28 18° SW 10:10:27 71° NW 10:14:33 10° NNE
Cosmos 2150 Rocket 4.3 10:06:48 10° NW 10:11:39 42° WSW 10:16:35 10° S
Lacrosse 4 Rocket 1.3 10:07:43 10° NNW 10:11:42 55° WSW 10:15:40 10° S
ALOS 3.7 10:08:39 10° NW 10:11:52 19° W 10:13:08 17° WSW
ISO 4.4 10:10:00 10° NW 10:12:19 14° N 10:14:22 10° NNE
MOS 1-B 4.5 10:07:13 10° N 10:12:51 56° WNW 10:18:33 10° SSW
Cosmos 1862 3.6 10:09:01 10° S 10:13:06 71° E 10:17:07 10° N
Sich 1 3.8 10:09:45 10° S 10:14:07 55° E 10:18:25 10° NNE
Cosmos 1633 3.4 10:12:49 17° SW 10:14:43 27° W 10:17:44 10° NNW
SEDSat Delta rocket 4.4 10:13:23 16° SW 10:14:51 19° SSW 10:17:50 10° SSE
STARLINK-1052 3.7 10:12:15 16° SW 10:15:26 61° NW 10:19:31 10° NNE
Delta 128 4.4 10:11:54 15° W 10:15:54 48° SSW 10:21:43 10° SE
NOAA 6 4.0 10:13:05 10° N 10:18:13 67° WNW 10:23:23 10° SSW
CZ-4B R/B 3.1 10:13:54 10° NNE 10:19:17 89° WNW 10:24:38 10° SSW
Okean O Rocket 1.5 10:16:14 10° N 10:20:35 86° W 10:24:57 10° SSW
H-2A R/B 2.6 10:18:49 10° N 10:22:30 86° W 10:26:14 10° SSW
Hubble Space Telescope 1.6 10:20:22 14° W 10:23:23 33° SSW 10:27:09 10° SE
SL-24 R/B - RUBIN 2 3.7 10:20:48 10° SSW 10:25:19 75° WNW 10:30:23 10° NNE
STARLINK-1033 4.1 10:21:48 13° SW 10:25:19 45° NW 10:29:17 10° NNE
Iridium 4 Rocket 4.1 10:23:19 10° SW 10:26:37 23° W 10:29:58 10° NW
Ariane H10 4.4 10:25:44 10° WNW 10:29:26 19° N 10:31:33 10° NE
STARLINK-1031 4.3 10:26:36 11° SW 10:30:18 39° WNW 10:34:09 10° NNE
Cosmos 1666 Rocket 4.2 10:28:37 10° S 10:32:57 61° E 10:37:16 10° NNE
STARLINK-1024 4.5 10:31:29 10° WSW 10:35:15 33° WNW 10:38:59 10° N
Cosmos 1633 Rocket 3.9 10:33:30 10° S 10:37:50 55° E 10:42:07 10° NNE
Helios 1A Rocket 3.7 10:35:07 10° NNE 10:39:10 58° ESE 10:43:13 10° S
Lacrosse 5 rocket 2.9 10:39:27 10° WSW 10:42:52 22° WNW 10:46:09 10° NNW
Cosmos 1151 Rocket 3.6 10:40:24 10° NNW 10:44:27 38° W 10:48:33 10° SSW
Cosmos 1782 3.9 10:41:00 10° N 10:44:51 51° E 10:48:44 10° SSE
